Regional Weather Roundup
Issued by NWS Spokane, WA

Home | Current Version | Previous Version | Text Only | Print | Product List | Glossary On
Versions: 1 2 3 4 5 6 7 8 9 10 11 12 13 14 15 16 17 18 19 20 21 22 23 24 25 26 27 28 29 30 31 32 33 34 35 36 37 38 39 40 41 42 43 44 45 46 47 48 49 50
000
NZUS01 KOTX 251210
RWROTX

Eastern Washington/Northern Idaho Roundup
National Weather Service, Spokane WA
500 AM PDT SAT MAR 25 2017

Note: "fair" indicated few or no clouds below 12,000 feet with no
significant weather and/or obstructions to visibility.

...Northeast Washington and Northern Idaho Panhandle...

CITY           SKY/WX    TMP DP  RH WIND       PRES   REMARKS
Spokane Intl   PTCLDY    39  36  89 S14       29.99S
Coeur d Alene  LGT RAIN  41  37  86 S7        30.02R
Deer Park      MOCLDY    35  33  92 N3        30.01R
Sandpoint      DRIZZLE   39  37  93 S6        30.01R
Bonners Ferry  CLOUDY    36  36 100 CALM      29.98R FOG

...Southeast Washington and southern Idaho Panhandle...

CITY           SKY/WX    TMP DP  RH WIND       PRES   REMARKS
Walla Walla    CLOUDY    45  39  79 S5        30.07R
Pullman/Moscow PTCLDY    39  34  82 S5        30.06R
Lewiston       CLOUDY    42  37  82 CALM      30.08R
Lowell           N/A     40  38  93 N3        30.12R
Grangeville    CLOUDY    36  32  87 CALM      30.05S

...Columbia Basin...

CITY           SKY/WX    TMP DP  RH WIND       PRES   REMARKS
Ephrata        MOCLDY    35  30  82 CALM      29.99R
Moses Lake     MOCLDY    39  34  82 SW12      30.01R
Pasco          CLOUDY    47  38  71 SW13      30.08R
Richland       CLOUDY    48  39  70 S9        30.08R
Hermiston      CLOUDY    41  39  93 S5        30.08S
Pendleton      CLOUDY    41  35  79 S3        30.08R

...East Slopes Cascades...

CITY           SKY/WX    TMP DP  RH WIND       PRES   REMARKS
The Dalles     CLOUDY    45  41  86 CALM      30.10S
Yakima         MOCLDY    37  33  85 W7        30.04R
Ellensburg     CLEAR     35  30  82 W6        30.01R
Wenatchee      PTCLDY    37  34  89 CALM      29.99F
Omak           PTCLDY    35  30  82 CALM      29.99R
Sunnyside        N/A     42  35  75 CALM      30.05S

...Southern British Columbia...

CITY           SKY/WX    TMP DP  RH WIND       PRES   REMARKS
Penticton      MOCLDY    41  36  81 S12       29.95R
Cranbrook      PTCLDY    36  30  80 S12       29.91S
Osoyoos          N/A     43  37  81 SE5         N/A
Creston          N/A     37  36  93 W2          N/A

...Western Montana...

CITY           SKY/WX    TMP DP  RH WIND       PRES   REMARKS
Kalispell      CLOUDY    37  31  78 S5        29.99R
Missoula       CLOUDY    40  32  73 N6        30.04S

...Neighboring Cities...

CITY           SKY/WX    TMP DP  RH WIND       PRES   REMARKS
Seattle        PTCLDY    44  41  89 S13       30.05S
Portland       MOCLDY    44  41  89 S8        30.13S
Boise          MOCLDY    38  36  92 S3        30.08S
Great Falls    CLOUDY    40  25  55 SW14      29.90S
Calgary        PTCLDY    41  16  36 W14G21    29.74R



USA.gov is the U.S. government's official web portal to all federal, state and local government web resources and services.